Austin, TX

12:25 AM CDT on September 20, 2017 (GMT -0500)
Austin

Weather History for KATT - April, 2012

Change the Weather History Date:

Wednesday, April 11, 2012

  Actual Average Record
Temperature  
Mean Temperature 73 °F 68 °F  
Max Temperature 85 °F 79 °F 95 °F (1925)
Min Temperature 60 °F 57 °F 35 °F (1900)
Degree Days  
Heating Degree Days 0 2  
Month to date heating degree days 0 24  
Since 1 July heating degree days 1213 1523  
Cooling Degree Days 8 5  
Month to date cooling degree days 105 45  
Year to date cooling degree days 269 133  
Growing Degree Days 22 (Base 50)    
Moisture  
Dew Point 61 °F    
Average Humidity 70    
Maximum Humidity 97    
Minimum Humidity 43    
Precipitation  
Precipitation 0.00 in 0.06 in 1.44 in (1959)
Month to date precipitation 0.08 0.68  
Year to date precipitation 13.29 7.68  
Snow  
Snow 0.00 in - - ()
Month to date snowfall 0.0  
Since 1 July snowfall T  
Snow Depth 0.00 in    
Sea Level Pressure  
Sea Level Pressure 30.05 in    
Wind  
Wind Speed 5 mph (South)    
Max Wind Speed 14 mph    
Max Gust Speed 21 mph    
Visibility 9 miles    
Events      
T = Trace of Precipitation, MM = Missing Value Source: NWS Daily Summary

Daily Weather History Graph

Daily Weather History Graph

Search for Another Location

Airport or City:

Trip Planner

Search our weather history database for the weather conditions in past years. The results will help you decide how hot, cold, wet, or windy it might be!

Date:

Astronomy

Apr. 11, 2012 Rise Set
Actual Time 7:07 AM CDT 7:56 PM CDT
Civil Twilight 6:43 AM CDT 8:21 PM CDT
Nautical Twilight 6:14 AM CDT 8:49 PM CDT
Astronomical Twilight 5:45 AM CDT 9:19 PM CDT
Moon 12:37 AM CDT (4/11) 11:13 AM CDT (4/11)
Length of Visible Light 13h 37m
Length of Day
12h 48m
Waning Gibbous, 69% of the Moon is Illuminated
Apr 11
Waning Gibbous
Apr 13
Last Quarter
Apr 21
New
Apr 29
First Quarter
May 5
Full

Hourly Weather History & Observations

Time (CDT) Temp. Heat Index Dew Point Humidity Pressure Visibility Wind Dir Wind Speed Gust Speed Precip Events Conditions
12:51 AM 68.0 °F - 60.1 °F 76% 30.06 in 10.0 mi South 8.1 mph - N/A   Clear
1:51 AM 66.9 °F - 60.1 °F 79% 30.07 in 10.0 mi Variable 3.5 mph - N/A   Clear
2:51 AM 64.9 °F - 60.1 °F 84% 30.06 in 10.0 mi South 3.5 mph - N/A   Clear
3:51 AM 64.0 °F - 60.1 °F 87% 30.06 in 9.0 mi Calm Calm - N/A   Clear
4:51 AM 62.1 °F - 59.0 °F 90% 30.06 in 6.0 mi Calm Calm - N/A   Clear
5:51 AM 61.0 °F - 57.9 °F 90% 30.06 in 6.0 mi Calm Calm - N/A   Clear
6:51 AM 60.1 °F - 57.9 °F 93% 30.08 in 5.0 mi Calm Calm - N/A   Clear
7:51 AM 61.0 °F - 59.0 °F 93% 30.09 in 4.0 mi Calm Calm - N/A   Clear
8:51 AM 66.0 °F - 62.1 °F 87% 30.10 in 7.0 mi Calm Calm - N/A   Partly Cloudy
9:40 AM 71.1 °F - 64.0 °F 78% 30.12 in 10.0 mi Variable 3.5 mph - N/A   Mostly Cloudy
9:47 AM 71.6 °F - 64.4 °F 78% 30.12 in 10.0 mi Variable 3.5 mph - N/A   Scattered Clouds
9:51 AM 72.0 °F - 64.0 °F 76% 30.10 in 10.0 mi SSW 5.8 mph - N/A   Partly Cloudy
10:21 AM 73.0 °F - 64.0 °F 73% 30.13 in 10.0 mi Variable 5.8 mph - N/A   Mostly Cloudy
10:41 AM 73.9 °F - 64.0 °F 71% 30.13 in 10.0 mi Variable 5.8 mph - N/A   Mostly Cloudy
10:51 AM 75.9 °F - 64.0 °F 67% 30.10 in 10.0 mi South 6.9 mph - N/A   Partly Cloudy
11:51 AM 80.1 °F 81.5 °F 63.0 °F 56% 30.09 in 10.0 mi SW 8.1 mph - N/A   Scattered Clouds
12:51 PM 78.1 °F - 61.0 °F 56% 30.08 in 5.0 mi SW 5.8 mph - N/A   Haze
1:51 PM 81.0 °F 81.7 °F 61.0 °F 50% 30.06 in 10.0 mi Variable 3.5 mph - N/A   Scattered Clouds
2:51 PM 84.0 °F 84.0 °F 60.1 °F 44% 30.03 in 10.0 mi Variable 5.8 mph - N/A   Scattered Clouds
3:51 PM 82.9 °F 82.8 °F 59.0 °F 44% 30.00 in 10.0 mi SSE 9.2 mph - N/A   Scattered Clouds
4:51 PM 82.9 °F 82.8 °F 59.0 °F 44% 29.98 in 10.0 mi SE 11.5 mph - N/A   Partly Cloudy
5:51 PM 82.9 °F 82.6 °F 57.9 °F 42% 29.95 in 10.0 mi SE 10.4 mph 17.3 mph N/A   Mostly Cloudy
6:51 PM 80.1 °F 80.7 °F 59.0 °F 48% 29.96 in 10.0 mi SE 9.2 mph - N/A   Partly Cloudy
7:51 PM 78.1 °F - 60.1 °F 54% 29.98 in 10.0 mi Variable 5.8 mph - N/A   Partly Cloudy
8:51 PM 75.9 °F - 60.1 °F 58% 30.00 in 10.0 mi South 6.9 mph - N/A   Clear
9:51 PM 73.9 °F - 60.1 °F 62% 30.02 in 10.0 mi SSE 6.9 mph - N/A   Clear
10:51 PM 73.0 °F - 60.1 °F 64% 30.00 in 10.0 mi SSE 12.7 mph - N/A   Clear
11:51 PM 71.1 °F - 61.0 °F 70% 30.01 in 10.0 mi Variable 6.9 mph 18.4 mph N/A   Partly Cloudy